Location: Clanezzo
(45.7500°N, 9.6000°E)
Time: 08:42:18
(UTC+00:00)

Gbstr 26 Del rocket - Pass Details

Date: 04 October 2021
Orbit: 492 x 1263 km, 51.8° (Epoch: 18 October)

Event Time Altitude Azimuth Distance (km) Brightness Sun altitude
Rises 18:44:43 0° 258° (WSW) 3,772 8.2 -19.7°
Reaches altitude 10° 18:47:16 10° 262° (W) 2,918 7.5 -20.1°
Maximum altitude 18:54:28 65° 344° (NNW) 1,303 4.7 -21.3°
Enters shadow 18:59:52 23° 60° (ENE) 2,400 5.6 -22.2°
